Thessaloniki, Greece

5:36 PM EEST on August 30, 2016 (GMT +0300)
Makedonia

Weather History for LGTS - October, 2012

Change the Weather History Date:

Sunday, October 28, 2012

  Actual Average Record
Temperature  
Mean Temperature 66 °F -  
Max Temperature 72 °F 61 °F 77 °F (2005)
Min Temperature 61 °F 44 °F 35 °F (1996)
Cooling Degree Days 2    
Growing Degree Days 16 (Base 50)    
Moisture  
Dew Point 62 °F    
Average Humidity 85    
Maximum Humidity 94    
Minimum Humidity 68    
Precipitation  
Precipitation 0.35 in 0.07 in - ()
Sea Level Pressure  
Sea Level Pressure 29.64 in    
Wind  
Wind Speed 5 mph ()    
Max Wind Speed 14 mph    
Max Gust Speed -    
Visibility 5.2 miles    
Events Rain    
Averages and records for this station are not official NWS values.
T = Trace of Precipitation, MM = Missing Value Source: Averaged Metar Reports

Daily Weather History Graph

Daily Weather History Graph

Search for Another Location

Airport or City:

Trip Planner

Search our weather history database for the weather conditions in past years. The results will help you decide how hot, cold, wet, or windy it might be!

Date:

Astronomy

Oct. 28, 2012 Rise Set
Actual Time 6:53 AM EET 5:29 PM EET
Civil Twilight 6:25 AM EET 5:57 PM EET
Nautical Twilight 5:53 AM EET 6:29 PM EET
Astronomical Twilight 5:21 AM EET 7:01 PM EET
Moon 4:37 PM EET (10/28) 5:28 AM EET (10/28)
Length of Visible Light 11h 31m
Length of Day
10h 35m
Waxing Gibbous, 98% of the Moon is Illuminated
Oct 28
Waxing Gibbous
Oct 29
Full
Nov 7
Last Quarter
Nov 14
New
Nov 20
First Quarter

Hourly Weather History & Observations

Time (EET) Temp. Dew Point Humidity Pressure Visibility Wind Dir Wind Speed Gust Speed Precip Events Conditions
12:20 AM 62.6 °F 59.0 °F 88% 29.65 in 6.2 mi Variable 2.3 mph - N/A   Scattered Clouds
12:50 AM 64.4 °F 60.8 °F 88% 29.65 in 6.2 mi NW 5.8 mph - N/A   Scattered Clouds
1:20 AM 62.6 °F 60.8 °F 94% 29.62 in 5.6 mi NNW 4.6 mph - N/A   Mostly Cloudy
1:50 AM 62.6 °F 59.0 °F 88% 29.62 in 5.6 mi Variable 2.3 mph - N/A   Mostly Cloudy
2:20 AM 64.4 °F 59.0 °F 83% 29.62 in 5.6 mi Variable 3.5 mph - N/A   Mostly Cloudy
2:50 AM 66.2 °F 59.0 °F 78% 29.62 in 5.6 mi Variable 2.3 mph - N/A   Mostly Cloudy
3:00 AM 67 °F 59 °F 69% 29.63 in 6 mi 2.3 mph - -   Mist
3:20 AM 64.4 °F 60.8 °F 88% 29.62 in 5.6 mi West 8.1 mph - N/A   Mostly Cloudy
3:50 AM 62.6 °F 59.0 °F 88% 29.62 in 5.6 mi West 8.1 mph - N/A   Mostly Cloudy
3:20 AM 62.6 °F 59.0 °F 88% 29.62 in 6.2 mi NW 10.4 mph - N/A   Mostly Cloudy
3:50 AM 62.6 °F 59.0 °F 88% 29.62 in 5.6 mi Variable 2.3 mph - N/A Rain Light Rain
4:20 AM 62.6 °F 59.0 °F 88% 29.62 in 5.6 mi Variable 2.3 mph - N/A Rain Light Rain
4:50 AM 62.6 °F 59.0 °F 88% 29.59 in 5.6 mi Variable 1.2 mph - N/A   Scattered Clouds
5:20 AM 62.6 °F 60.8 °F 94% 29.59 in 6.2 mi Calm Calm - N/A   Scattered Clouds
5:50 AM 69.8 °F 59.0 °F 68% 29.59 in 6.2 mi SSE 9.2 mph - N/A   Mostly Cloudy
6:20 AM 71.6 °F 60.8 °F 69% 29.59 in 6.2 mi South 10.4 mph - N/A   Mostly Cloudy
6:50 AM 69.8 °F 60.8 °F 73% 29.59 in 6.2 mi WSW 4.6 mph - N/A Rain Light Rain
7:20 AM 66.2 °F 60.8 °F 83% 29.62 in 4.3 mi South 5.8 mph - N/A Rain Rain
7:50 AM 66.2 °F 64.4 °F 94% 29.62 in 5.6 mi ESE 8.1 mph - N/A Rain Rain
8:00 AM 67 °F 64 °F 85% 29.64 in 6 mi ESE 8.1 mph - - Rain Rain
8:20 AM 66.2 °F 64.4 °F 94% 29.65 in 6.2 mi ESE 8.1 mph - N/A Rain Light Rain
8:50 AM 68.0 °F 62.6 °F 83% 29.65 in 6.2 mi ESE 8.1 mph - N/A Rain Light Rain
9:20 AM 68.0 °F 62.6 °F 83% 29.65 in 6.2 mi ESE 8.1 mph - N/A Rain Light Rain
9:50 AM 69.8 °F 64.4 °F 83% 29.65 in 6.2 mi East 5.8 mph - N/A Rain Light Rain
10:20 AM 69.8 °F 64.4 °F 83% 29.65 in 6.2 mi East 10.4 mph - N/A   Mostly Cloudy
10:50 AM 71.6 °F 64.4 °F 78% 29.65 in 6.2 mi ESE 9.2 mph - N/A   Mostly Cloudy
11:20 AM 73.4 °F 62.6 °F 69% 29.65 in 5.0 mi SE 9.2 mph - N/A   Mostly Cloudy
11:50 AM 69.8 °F 64.4 °F 83% 29.65 in 5.0 mi West 5.8 mph - N/A   Mostly Cloudy
12:20 PM 68.0 °F 64.4 °F 88% 29.65 in 4.3 mi West 10.4 mph - N/A   Mostly Cloudy
12:50 PM 68.0 °F 62.6 °F 83% 29.68 in 1.9 mi West 8.1 mph - N/A Rain Rain
1:20 PM 66.2 °F 62.6 °F 88% 29.68 in 4.3 mi SSW 4.6 mph - N/A   Light Drizzle
1:50 PM 66.2 °F 62.6 °F 88% 29.65 in 4.3 mi Variable 3.5 mph - N/A Rain Light Rain
2:00 PM 66 °F 63 °F 88% 29.67 in 4 mi 3.5 mph - - Rain Light Rain
2:20 PM 68.0 °F 64.4 °F 88% 29.65 in 4.3 mi SE 4.6 mph - N/A Rain Light Rain
2:50 PM 68.0 °F 62.6 °F 83% 29.65 in 4.3 mi ESE 8.1 mph - N/A Rain Rain
3:20 PM 68.0 °F 64.4 °F 88% 29.65 in 4.3 mi Calm Calm - N/A Rain Rain
3:50 PM 66.2 °F 62.6 °F 88% 29.65 in 5.0 mi WSW 5.8 mph - N/A Rain Light Rain
4:20 PM 68.0 °F 64.4 °F 88% 29.62 in 5.0 mi SE 5.8 mph - N/A   Mostly Cloudy
4:50 PM 69.8 °F 64.4 °F 83% 29.62 in 5.6 mi Calm Calm - N/A   Mostly Cloudy
5:20 PM 68.0 °F 64.4 °F 88% 29.62 in 5.0 mi WNW 6.9 mph - N/A   Mostly Cloudy
5:50 PM 68.0 °F 64.4 °F 88% 29.65 in 3.7 mi NW 4.6 mph - N/A Rain Light Rain
6:20 PM 68.0 °F 64.4 °F 88% 29.68 in 3.1 mi West 6.9 mph - N/A Rain Rain
6:50 PM 66.2 °F 62.6 °F 88% 29.68 in 3.1 mi NW 13.8 mph - N/A Rain Rain
7:20 PM 66.2 °F 62.6 °F 88% 29.68 in 3.7 mi Variable 3.5 mph - N/A Rain Light Rain
7:50 PM 66.2 °F 62.6 °F 88% 29.68 in 3.7 mi Variable 3.5 mph - N/A   Mostly Cloudy
8:00 PM 66 °F 63 °F 85% 29.71 in 4 mi 3.5 mph - - Rain Light Rain
8:20 PM 64.4 °F 62.6 °F 94% 29.68 in 4.3 mi Calm Calm - N/A   Mostly Cloudy
8:50 PM 64.4 °F 62.6 °F 94% 29.68 in 4.3 mi Variable 3.5 mph - N/A Rain Light Rain
9:20 PM 66.2 °F 62.6 °F 88% 29.68 in 6.2 mi Variable 3.5 mph - N/A   Mostly Cloudy
9:50 PM 66.2 °F 62.6 °F 88% 29.68 in 6.2 mi Variable 3.5 mph - N/A   Mostly Cloudy
10:20 PM 66.2 °F 62.6 °F 88% 29.65 in 6.2 mi Variable 3.5 mph - N/A   Mostly Cloudy
10:50 PM 64.4 °F 60.8 °F 88% 29.65 in 6.2 mi ESE 4.6 mph - N/A   Mostly Cloudy